Ramona, CA

7:12 AM PST on December 05, 2019 (GMT -0800)
Ramona

Weather History for KRNM - July, 2019

Change the Weather History Date:

Sunday, July 21, 2019

  Actual Average Record
Temperature  
Mean Temperature 75 °F 73 °F  
Max Temperature 94 °F 89 °F 101 °F (1982)
Min Temperature 55 °F 57 °F 47 °F (2001)
Degree Days  
Heating Degree Days 0 0  
Month to date heating degree days 0 0  
Since 1 June heating degree days 2 27  
Since 1 July heating degree days 0 0  
Cooling Degree Days 10 8  
Month to date cooling degree days 137 141  
Year to date cooling degree days 286 254  
Since 1 June cooling degree days 271 227  
Growing Degree Days 24 (Base 50)    
Moisture  
Dew Point 57 °F    
Average Humidity 63    
Maximum Humidity 93    
Minimum Humidity 32    
Precipitation  
Precipitation 0.00 in 0.00 in 0.31 in (1986)
Month to date precipitation 0.00 0.07  
Year to date precipitation 15.31 11.40  
Sea Level Pressure  
Sea Level Pressure 29.90 in    
Wind  
Wind Speed 5 mph (WNW)    
Max Wind Speed 15 mph    
Max Gust Speed 19 mph    
Visibility 7 miles    
Events Fog    
T = Trace of Precipitation, MM = Missing Value Source: NWS Daily Summary

Daily Weather History Graph

Daily Weather History Graph

Search for Another Location

Airport or City:

Astronomy

Jul. 21, 2019 Rise Set
Actual Time 5:53 AM PDT 7:54 PM PDT
Civil Twilight 5:25 AM PDT 8:21 PM PDT
Nautical Twilight 4:52 AM PDT 8:55 PM PDT
Astronomical Twilight 4:15 AM PDT 9:31 PM PDT
Moon 11:03 PM PDT (7/21) 10:06 AM PDT (7/21)
Length of Visible Light 14h 56m
Length of Day
14h 00m
Waning Gibbous, 79% of the Moon is Illuminated
Jul 21
Waning Gibbous
Jul 24
Last Quarter
Jul 31
New
Aug 7
First Quarter
Aug 15
Full

Hourly Weather History & Observations

Time (PDT) Temp. Heat Index Dew Point Humidity Pressure Visibility Wind Dir Wind Speed Gust Speed Precip Events Conditions
12:53 AM 60.1 °F - 55.0 °F 83% 29.89 in 10.0 mi Calm Calm - N/A   Clear
1:53 AM 59.0 °F - 54.0 °F 83% 29.89 in 10.0 mi Calm Calm - N/A   Clear
2:53 AM 57.9 °F - 53.1 °F 84% 29.89 in 10.0 mi Calm Calm - N/A   Clear
3:09 AM 57.0 °F - 53.1 °F 87% 29.92 in 1.8 mi West 3.5 mph - N/A   Partly Cloudy
3:11 AM 55.9 °F - 53.1 °F 90% 29.92 in 0.5 mi West 3.5 mph - N/A Fog Fog
3:19 AM 55.0 °F - 53.1 °F 93% 29.92 in 0.2 mi WNW 3.5 mph - N/A Fog Fog
3:53 AM 57.9 °F - 55.9 °F 93% 29.87 in 0.2 mi Calm Calm - N/A Fog Fog
4:53 AM 59.0 °F - 57.0 °F 93% 29.88 in 0.2 mi Calm Calm - N/A Fog Fog
5:53 AM 59.0 °F - 57.9 °F 96% 29.89 in 0.2 mi Calm Calm - N/A Fog Fog
6:53 AM 59.0 °F - 57.9 °F 96% 29.91 in 0.2 mi Calm Calm - N/A Fog Fog
7:53 AM 60.1 °F - 57.9 °F 93% 29.92 in 0.2 mi Calm Calm - N/A Fog Fog
8:01 AM 60.1 °F - 57.9 °F 93% 29.95 in 1.0 mi Calm Calm - N/A   Overcast
8:06 AM 60.1 °F - 57.9 °F 93% 29.95 in 2.0 mi Calm Calm - N/A   Overcast
8:07 AM 60.8 °F - 57.2 °F 88% 29.95 in 10.0 mi Calm Calm - N/A   Scattered Clouds
8:14 AM 61.0 °F - 57.9 °F 90% 29.95 in 7.0 mi Calm Calm - N/A   Mostly Cloudy
8:22 AM 62.1 °F - 59.0 °F 90% 29.95 in 10.0 mi Calm Calm - N/A   Scattered Clouds
8:53 AM 70.0 °F - 57.0 °F 63% 29.91 in 10.0 mi Calm Calm - N/A   Clear
9:53 AM 80.1 °F 80.4 °F 57.0 °F 45% 29.90 in 10.0 mi Variable 4.6 mph - N/A   Clear
10:53 AM 82.9 °F 82.4 °F 57.0 °F 41% 29.91 in 10.0 mi NW 9.2 mph - N/A   Clear
11:53 AM 87.1 °F 85.9 °F 57.0 °F 36% 29.90 in 10.0 mi WNW 8.1 mph - N/A   Clear
12:53 PM 91.0 °F 90.0 °F 57.9 °F 33% 29.88 in 10.0 mi NW 11.5 mph - N/A   Clear
1:53 PM 93.9 °F 93.2 °F 59.0 °F 31% 29.87 in 10.0 mi West 8.1 mph - N/A   Clear
2:53 PM 91.9 °F 91.5 °F 60.1 °F 34% 29.87 in 10.0 mi West 12.7 mph 18.4 mph N/A   Clear
3:53 PM 89.1 °F 88.8 °F 60.1 °F 38% 29.87 in 10.0 mi WNW 12.7 mph - N/A   Clear
4:53 PM 86.0 °F 85.7 °F 60.1 °F 41% 29.86 in 10.0 mi West 10.4 mph - N/A   Clear
5:53 PM 82.9 °F 83.2 °F 60.1 °F 46% 29.86 in 10.0 mi NW 11.5 mph - N/A   Clear
6:53 PM 78.1 °F - 60.1 °F 54% 29.88 in 10.0 mi WNW 9.2 mph - N/A   Clear
7:53 PM 73.0 °F - 59.0 °F 61% 29.89 in 10.0 mi WNW 6.9 mph - N/A   Clear
8:53 PM 68.0 °F - 57.9 °F 70% 29.90 in 10.0 mi WNW 4.6 mph - N/A   Clear
9:53 PM 68.0 °F - 57.9 °F 70% 29.91 in 10.0 mi West 4.6 mph - N/A   Clear
10:53 PM 64.0 °F - 59.0 °F 84% 29.91 in 10.0 mi WNW 6.9 mph - N/A   Clear
11:53 PM 63.0 °F - 59.0 °F 87% 29.92 in 9.0 mi West 4.6 mph - N/A   Clear